[[{"header":{"parameterUnit":"m.s-1","parameterCategory":1,"la1":30.2991,"la2":30.254,"lo1":-89.0895,"lo2":-89.0444,"dy":0.0017,"dx":0.0017,"nx":28,"ny":28,"refTime":"2024-09-01T21:00:00:Z","depth":0,"parameterNumber":2,"parameterNumberName":"U-component_of_WINDS"},"data":[0,0,0,0,0,0,0,0,0,0,0,0,0,0,0,0,0,0,0,0,0,0,0,0,0,0,0,0,0,0,0,0,0,0,0,0,0,0,0,0,0,0,0,0,0,0,0,0,0,0,0,0,0,0,0,0,0,0,-3.8455,-3.8455,0,-3.8468,-3.8469,-3.8469,-3.8389,-3.8387,-3.8385,-3.8382,-3.8397,-3.84,-3.8402,0,0,0,0,0,0,0,0,0,0,0,0,0,-3.8363,-3.8365,-3.8455,-3.8455,-3.8455,-3.8468,-3.8469,-3.8469,-3.8389,-3.8387,-3.8384,-3.8381,-3.8397,-3.84,-3.8403,0,0,0,0,0,0,0,0,0,0,0,0,0,-3.8392,-3.8366,-3.8455,-3.8417,-3.8414,-3.8468,-3.8469,-3.8469,-3.839,-3.8387,-3.8383,-3.838,-3.8396,-3.8399,-3.8403,-3.8494,0,0,-3.8415,-3.8416,0,0,0,0,0,0,0,0,-3.8391,-3.8396,-3.8423,-3.842,-3.8417,-3.8423,-3.8441,-3.8477,-3.8391,-3.8399,-3.8382,-3.8378,-3.8409,-3.8411,-3.8421,-3.8495,-3.8496,-3.8415,-3.8417,-3.8419,-3.842,0,0,0,0,0,0,0,-3.8389,-3.8395,-3.846,-3.8423,-3.8419,-3.84,-3.8401,-3.8448,-3.8423,-3.8398,-3.8392,-3.8395,-3.8407,-3.8418,-3.8421,-3.8496,-3.8415,-3.8418,-3.842,-3.8422,-3.8647,-3.8651,0,0,0,0,0,0,-3.8392,-3.8394,-3.846,-3.8461,-3.8395,-3.8405,-3.8405,-3.8425,-3.8422,-3.8419,-3.8398,-3.8391,-3.8413,-3.8417,-3.8421,-3.853,-3.8419,-3.8422,-3.8424,-3.8643,-3.8648,-3.8652,0,0,0,0,0,0,-3.839,-3.8398,-3.8459,-3.8426,-3.8432,-3.841,-3.8433,-3.8427,-3.8438,-3.8422,-3.8417,-3.8414,-3.8411,-3.8416,-3.8477,-3.8529,-3.8424,-3.8427,-3.8639,-3.8645,-3.865,-3.8746,0,0,0,0,0,0,-3.8388,-3.8398,-3.8432,-3.8427,-3.8434,-3.8515,-3.8436,-3.843,-3.8445,-3.8436,-3.8436,-3.8433,-3.8408,-3.8472,-3.8481,-3.8532,-3.843,-3.8634,-3.8642,-3.8648,-3.8738,-3.8754,-3.8768,0,0,0,0,0,-3.8385,-3.8459,-3.8434,-3.8443,-3.8476,-3.8518,-3.8522,-3.8492,-3.8449,-3.8484,-3.8474,-3.8433,-3.8522,-3.8479,-3.8488,-3.8542,-3.8631,-3.864,-3.8648,-3.8732,-3.8751,-3.8768,0,0,0,0,0,0,-3.847,-3.8457,-3.843,-3.8504,-3.8513,-3.8504,-3.8547,-3.8513,-3.8534,-3.8526,-3.8488,-3.8489,-3.8557,-3.8555,-3.8507,-3.8631,-3.8569,-3.858,-3.863,-3.8648,-3.8663,-3.8662,-3.8434,0,0,0,0,0,-3.8498,-3.8533,-3.8519,-3.8586,-3.8592,-3.8569,-3.8586,-3.8562,-3.8569,-3.8573,-3.8567,-3.8576,-3.8606,-3.8627,-3.8653,-3.8737,-3.8737,-3.8779,-3.8794,-3.8806,-3.8816,-3.8862,-3.8881,-3.868,-3.8679,-3.8679,0,0,-3.8555,-3.8552,-3.8576,-3.8603,-3.8607,-3.8645,-3.8572,-3.8614,-3.8642,-3.8579,-3.8637,-3.8633,-3.8641,-3.8714,-3.8746,-3.8715,-3.8872,-3.8817,-3.8827,-3.883,-3.8873,-3.8892,-3.8909,-3.8685,-3.8684,-3.8683,0,0,-3.868,-3.868,-3.8737,-3.8742,-3.8749,-3.8733,-3.8747,-3.8743,-3.8739,-3.8796,-3.875,-3.8782,-3.8834,-3.8842,-3.8853,-3.8982,-3.8946,-3.8991,-3.907,-3.9115,-3.9131,-3.9145,-3.9192,-3.921,-3.9001,-3.9002,-3.9002,0,-3.875,-3.8804,-3.877,-3.8816,-3.883,-3.8774,-3.8832,-3.8839,-3.8854,-3.8866,-3.883,-3.8895,-3.8896,-3.8972,-3.9003,-3.9013,-3.9029,-3.8992,-3.9131,-3.9145,-3.9157,-3.9202,-3.922,-3.9007,-3.9006,-3.9006,-3.9005,0,-3.8892,-3.893,-3.8975,-3.8991,-3.901,-3.9062,-3.9036,-3.906,-3.9035,-3.9023,-3.9083,-3.9082,-3.9109,-3.9125,-3.91,-3.9197,-3.9178,-3.9138,-3.9075,-3.9183,-3.9225,-3.9241,-3.9015,-3.9013,-3.9012,-3.901,0,0,-3.907,-3.9068,-3.9085,-3.9092,-3.9096,-3.9125,-3.9175,-3.92,-3.9222,-3.9234,-3.9276,-3.9322,-3.9285,-3.9298,-3.9274,-3.9314,-3.9418,-3.9268,-3.9268,-3.9297,-3.9526,-3.9558,-3.9578,-3.9393,-3.9396,-3.9399,-3.9526,0,-3.9193,-3.9277,-3.9249,-3.9335,-3.9371,-3.9319,-3.9362,-3.937,-3.9361,-3.939,-3.938,-3.9414,-3.9362,-3.9369,-3.9406,-3.9397,-3.9463,-3.9387,-3.9433,-3.9435,-3.9434,-3.9599,-3.9632,-3.9753,-3.9542,-3.9545,-3.9547,0,-3.9347,-3.9366,-3.9456,-3.9455,-3.9469,-3.9508,-3.953,-3.9559,-3.9567,-3.9557,-3.9572,-3.954,-3.959,-3.9527,-3.9596,-3.9545,-3.9562,-3.956,-3.9564,-3.9568,-3.9498,-3.961,-3.979,-3.9809,-3.9571,-3.9569,-3.9568,0,-3.947,-3.9518,-3.9579,-3.9586,-3.9586,-3.9616,-3.9617,-3.9621,-3.9639,-3.9658,-3.967,-3.9695,-3.9709,-3.9729,-3.9706,-3.9661,-3.9779,-3.9713,-3.9774,-3.9775,-3.9802,-3.9801,-3.9989,-3.9811,-3.981,-3.981,-3.981,0,-3.9611,-3.9668,-3.9634,-3.9672,-3.9735,-3.9702,-3.9766,-3.9761,-3.9766,-3.9802,-3.9759,-3.9794,-3.976,-3.9792,-3.9774,-3.9835,-3.9841,-3.9836,-3.9831,-3.9841,-3.9842,-3.9852,-3.9844,-3.9815,-3.9814,-3.9813,-3.9812,0,-3.976,-3.9739,-3.9802,-3.9797,-3.9797,-3.9844,-3.984,-3.9875,-3.9862,-3.9909,-3.9918,-3.9899,-3.9935,-3.9914,-3.995,-3.9938,-4.0018,-4.0,-4.0015,-4.0011,-4.0074,-4.0069,-4.0277,-4.0303,-4.0106,-4.0108,-4.011,0,-3.9851,-3.9894,-3.9894,-3.9915,-3.992,-3.9954,-3.9972,-3.9941,-3.9962,-3.9975,-4.0009,-4.0041,-4.0065,-4.0126,-4.0116,-4.0144,-4.0128,-4.0199,-4.0132,-4.0141,-4.0131,-4.0129,-4.0134,-4.0213,-4.0215,-4.0217,-4.0218,0,-4.0017,-4.0005,-4.0032,-4.0057,-4.008,-4.0098,-4.0112,-4.0132,-4.0101,-4.0127,-4.0163,-4.0182,-4.022,-4.0253,-4.0277,-4.0279,-4.0245,-4.0239,-4.0255,-4.0267,-4.0274,-4.0273,-4.0054,-4.0235,-4.0233,-4.0232,-4.0231,-4.0231,-4.0141,-4.0177,-4.0183,-4.0216,-4.0223,-4.0238,-4.0271,-4.0263,-4.0293,-4.0321,-4.0301,-4.0345,-4.0353,-4.0382,-4.0388,-4.0423,-4.0394,-4.0417,-4.0423,-4.0429,-4.0438,-4.0268,-4.0427,-4.0426,-4.0426,-4.0425,-4.0425,0,-4.0305,-4.0307,-4.0337,-4.0359,-4.0385,-4.0349,-4.0364,-4.0388,-4.0427,-4.0437,-4.0462,-4.0505,-4.0537,-4.053,-4.0559,-4.0588,-4.0573,-4.0597,-4.0595,-4.0597,-4.0461,-4.0445,-4.0609,-4.0609,-4.0609,-4.0609,-4.0609,-4.0609,-4.0394,-4.0455,-4.0444,-4.0508,-4.0509,-4.0551,-4.0563,-4.0577,-4.0585,-4.0634,-4.0661,-4.0656,-4.066,-4.0689,-4.0718,-4.0715,-4.0728,-4.0759,-4.075,-4.0624,-4.0606,-4.0589,-4.0574,-4.0761,-4.0762,-4.0883,-4.0884,-4.0885]},{"header":{"parameterUnit":"m.s-1","parameterCategory":1,"la1":30.2991,"la2":30.254,"lo1":-89.0895,"lo2":-89.0444,"dy":0.0017,"dx":0.0017,"nx":28,"ny":28,"refTime":"2024-09-01T21:00:00:Z","depth":0,"parameterNumber":3,"parameterNumberName":"V-component_of_WINDS"},"data":[0,0,0,0,0,0,0,0,0,0,0,0,0,0,0,0,0,0,0,0,0,0,0,0,0,0,0,0,0,0,0,0,0,0,0,0,0,0,0,0,0,0,0,0,0,0,0,0,0,0,0,0,0,0,0,0,0,0,-1.8444,-1.8443,0,-1.838,-1.838,-1.8379,-1.832,-1.8319,-1.8318,-1.8318,-1.825,-1.8249,-1.8248,0,0,0,0,0,0,0,0,0,0,0,0,0,-1.851,-1.8509,-1.8444,-1.8443,-1.8442,-1.8381,-1.838,-1.8379,-1.832,-1.8319,-1.8318,-1.8317,-1.8251,-1.8249,-1.8248,0,0,0,0,0,0,0,0,0,0,0,0,0,-1.8468,-1.8509,-1.8444,-1.8405,-1.8401,-1.8381,-1.838,-1.8379,-1.832,-1.8319,-1.8318,-1.8317,-1.8251,-1.8249,-1.8248,-1.8259,0,0,-1.8243,-1.8242,0,0,0,0,0,0,0,0,-1.847,-1.8465,-1.8412,-1.8408,-1.8403,-1.8357,-1.8378,-1.8338,-1.8321,-1.8351,-1.8318,-1.8317,-1.8286,-1.8282,-1.8272,-1.8256,-1.8253,-1.8243,-1.8242,-1.8241,-1.824,0,0,0,0,0,0,0,-1.8473,-1.8468,-1.8418,-1.8411,-1.8406,-1.839,-1.8383,-1.8371,-1.8325,-1.8348,-1.8344,-1.8337,-1.8284,-1.8274,-1.827,-1.8252,-1.8243,-1.8241,-1.824,-1.8239,-1.8241,-1.8242,0,0,0,0,0,0,-1.8482,-1.8471,-1.842,-1.8417,-1.8435,-1.839,-1.8382,-1.8373,-1.8325,-1.8317,-1.8338,-1.8335,-1.8277,-1.8272,-1.8268,-1.8278,-1.8241,-1.8239,-1.8238,-1.824,-1.8242,-1.8243,0,0,0,0,0,0,-1.8484,-1.8479,-1.8423,-1.8442,-1.8434,-1.839,-1.838,-1.8372,-1.8362,-1.8318,-1.8309,-1.8337,-1.8276,-1.827,-1.8262,-1.8275,-1.8238,-1.8237,-1.8239,-1.8241,-1.8242,-1.8298,0,0,0,0,0,0,-1.8486,-1.848,-1.8484,-1.8443,-1.8433,-1.8419,-1.8381,-1.8372,-1.836,-1.8355,-1.8314,-1.8306,-1.8275,-1.8265,-1.826,-1.8272,-1.8236,-1.8238,-1.824,-1.8242,-1.8295,-1.8302,-1.8307,0,0,0,0,0,-1.8489,-1.8502,-1.8485,-1.8479,-1.8438,-1.842,-1.8415,-1.8379,-1.8361,-1.8365,-1.8336,-1.8308,-1.8274,-1.8264,-1.8259,-1.827,-1.8237,-1.8239,-1.8241,-1.8292,-1.83,-1.8307,0,0,0,0,0,0,-1.8545,-1.8496,-1.8476,-1.8477,-1.8453,-1.841,-1.8414,-1.8389,-1.8369,-1.8365,-1.8321,-1.8312,-1.8309,-1.8288,-1.8279,-1.8278,-1.8251,-1.8253,-1.8292,-1.8299,-1.8305,-1.831,-1.8234,0,0,0,0,0,-1.8558,-1.8548,-1.8505,-1.8509,-1.8499,-1.8459,-1.845,-1.8424,-1.8398,-1.8387,-1.8358,-1.8333,-1.8316,-1.8306,-1.8289,-1.8292,-1.8282,-1.8296,-1.8302,-1.8308,-1.831,-1.8309,-1.8315,-1.8251,-1.8251,-1.825,0,0,-1.8583,-1.8555,-1.8552,-1.852,-1.8499,-1.8489,-1.8451,-1.8442,-1.8434,-1.8386,-1.8377,-1.8354,-1.8323,-1.832,-1.8318,-1.8303,-1.8325,-1.8311,-1.8315,-1.8314,-1.8312,-1.8318,-1.8324,-1.8252,-1.8252,-1.8252,0,0,-1.8625,-1.8603,-1.8604,-1.8584,-1.8553,-1.8526,-1.8526,-1.8487,-1.8471,-1.8461,-1.8425,-1.8414,-1.8387,-1.8366,-1.8352,-1.8385,-1.8358,-1.838,-1.8412,-1.8412,-1.8417,-1.8422,-1.8434,-1.8439,-1.8382,-1.8382,-1.8382,0,-1.8661,-1.8645,-1.8608,-1.8602,-1.8588,-1.8545,-1.8545,-1.8527,-1.8492,-1.8483,-1.8467,-1.8432,-1.8408,-1.84,-1.8408,-1.8398,-1.8396,-1.8385,-1.842,-1.8424,-1.8427,-1.8438,-1.8443,-1.8385,-1.8385,-1.8385,-1.8384,0,-1.8691,-1.8681,-1.8685,-1.8653,-1.864,-1.8637,-1.8598,-1.859,-1.8565,-1.854,-1.853,-1.85,-1.8475,-1.8471,-1.8447,-1.8459,-1.8451,-1.8428,-1.8401,-1.8437,-1.8447,-1.845,-1.839,-1.8389,-1.8388,-1.8387,0,0,-1.8767,-1.8714,-1.8716,-1.8701,-1.8663,-1.8654,-1.8649,-1.8625,-1.8619,-1.8595,-1.859,-1.8567,-1.8546,-1.853,-1.8503,-1.8503,-1.8531,-1.8479,-1.8478,-1.849,-1.8543,-1.8561,-1.8566,-1.8513,-1.8513,-1.8514,-1.8546,0,-1.8802,-1.8792,-1.8757,-1.8757,-1.8747,-1.8705,-1.87,-1.8676,-1.8651,-1.8639,-1.8611,-1.8596,-1.8569,-1.8559,-1.8557,-1.8528,-1.8541,-1.8525,-1.8506,-1.8506,-1.8516,-1.8571,-1.859,-1.8622,-1.8549,-1.855,-1.855,0,-1.8843,-1.8823,-1.8822,-1.8784,-1.8779,-1.8775,-1.8751,-1.874,-1.8711,-1.8693,-1.8675,-1.8645,-1.8636,-1.861,-1.8597,-1.8587,-1.8577,-1.8561,-1.8561,-1.8559,-1.8531,-1.857,-1.8631,-1.8636,-1.8556,-1.8555,-1.8555,0,-1.8899,-1.8872,-1.8867,-1.8856,-1.8812,-1.881,-1.8792,-1.8762,-1.875,-1.8728,-1.872,-1.8697,-1.8685,-1.8668,-1.8632,-1.8616,-1.8622,-1.8593,-1.8607,-1.8608,-1.8611,-1.8611,-1.8671,-1.8604,-1.8604,-1.8604,-1.8603,0,-1.8943,-1.8944,-1.8892,-1.889,-1.8889,-1.8849,-1.8849,-1.8826,-1.88,-1.8791,-1.8753,-1.8746,-1.8699,-1.8685,-1.8657,-1.865,-1.8645,-1.863,-1.8622,-1.8633,-1.8635,-1.8626,-1.8623,-1.8605,-1.8604,-1.8604,-1.8604,0,-1.9005,-1.8971,-1.8964,-1.8923,-1.8912,-1.8914,-1.8878,-1.8873,-1.8847,-1.8837,-1.8832,-1.879,-1.8772,-1.8735,-1.8706,-1.8687,-1.8687,-1.8674,-1.8698,-1.8693,-1.8709,-1.8708,-1.8766,-1.8771,-1.87,-1.8701,-1.8702,0,-1.9036,-1.9036,-1.8995,-1.8987,-1.897,-1.8958,-1.8946,-1.8906,-1.8895,-1.8862,-1.8861,-1.8841,-1.8822,-1.8796,-1.8762,-1.874,-1.8726,-1.8748,-1.8723,-1.8734,-1.8727,-1.8727,-1.8727,-1.8754,-1.8755,-1.8755,-1.8756,0,-1.9094,-1.9077,-1.9062,-1.9041,-1.9027,-1.9008,-1.8987,-1.8983,-1.8937,-1.8927,-1.8909,-1.8895,-1.8866,-1.8846,-1.882,-1.8799,-1.877,-1.8764,-1.8766,-1.8778,-1.8792,-1.8785,-1.8713,-1.8763,-1.8763,-1.8762,-1.8762,-1.8761,-1.9141,-1.9139,-1.9111,-1.9095,-1.9075,-1.9056,-1.905,-1.9022,-1.9007,-1.8982,-1.8959,-1.8943,-1.8913,-1.8874,-1.8855,-1.8842,-1.8827,-1.883,-1.8831,-1.8833,-1.8837,-1.8794,-1.8837,-1.8836,-1.8836,-1.8836,-1.8836,0,-1.9198,-1.9177,-1.9163,-1.9135,-1.9122,-1.9097,-1.9072,-1.9063,-1.905,-1.9025,-1.9008,-1.8987,-1.8967,-1.8932,-1.8909,-1.8905,-1.8891,-1.89,-1.8901,-1.8896,-1.8851,-1.8852,-1.8912,-1.8912,-1.8912,-1.8912,-1.8912,-1.8912,-1.9225,-1.9221,-1.92,-1.9185,-1.9163,-1.9149,-1.9137,-1.9119,-1.9099,-1.9078,-1.9062,-1.9039,-1.901,-1.8984,-1.8965,-1.8955,-1.8948,-1.8962,-1.8947,-1.8906,-1.8899,-1.8893,-1.8893,-1.896,-1.8961,-1.8993,-1.8993,-1.8994]}]]